Weather in Elektrenai

Lithuania     54°47′05″N   24°40′01″E
temp.,
°C
wind,
m/s
gust,
m/s
humid.,
%
clouds,
%
prec.,
mm/h
press.,
hPa
HPBL,
m
28 july, wed
wed2800:00+18ssw2496100 0.6 101281
03:00+18sw239565 0.6 101158
06:00+17w22965 0.0 101222
09:00+21w238418 0.0 1012334
12:00+26wsw345849 0.0 10111063
15:00+27w5649100 0.0 10111886
18:00+27w46520 0.0 10101789
21:00+22sw22695 0.0 101012
29 july, thu
thu2900:00+20s2272100 0.0 100922
03:00+18wsw4991100 0.4 1010242
06:00+18s2295100 4.3 100867
09:00+19ssw3695100 4.4 1008382
12:00+21w458093 0.1 1009835
15:00+25w5755100 0.2 10081875
18:00+22wnw4964100 0.0 1008473
21:00+20wsw387518 0.1 1008246
30 july, fri
fri3000:00+17wsw34885 0.1 100968
03:00+16wsw24892 0.2 1009111
06:00+14ssw349417 0.1 100874
09:00+17wsw611740 0.2 1008532
12:00+22wsw7124624 0.0 10082314
15:00+20w51056100 0.0 10071234
18:00+20wsw5105320 0.0 1006770
21:00+18sw511650 0.0 1006375
31 july, sat
sat3100:00+15sw410755 0.0 1006188
03:00+13sw38850 0.0 1006130
06:00+13sw388066 0.0 1007140
09:00+19sw4762100 0.0 1007386
12:00+21sw4753100 0.0 1006708
15:00+25wsw5846100 0.0 10051857
18:00+18ssw2389100 0.9 100499
21:00+18ssw399274 1.4 1004269
1 august, sun
sun100:00+16wsw3492100 0.1 100557
03:00+14wsw34930 0.1 100671
06:00+12sw411920 0.0 1006221
09:00+17sw510778 0.0 1007567
12:00+21wsw685956 0.0 10081441
15:00+22w4756100 0.0 10081520
18:00+23w3651100 0.0 10081849
21:00+18nne1176100 0.1 100812